Вернуться в каталог

FENGYUN 1C DEB

АктивенSSO
NORAD 30882·DEBRIS·🇨🇳 China

Запущен May 10, 1999 с Taiyuan Satellite Launch Center

Loading…

Ближайшие Пролёты (ближайшие 24 часа)

TLE

СвежийSource: Space-Track

Эпоха: Sep 14, 2026, 10:03 UTC

1 30882U 99025AXU 26257.41940491  .00005924  00000-0  48844-3 0  9991
2 30882  97.9077 318.4171 0138068 211.6813 147.6043 14.92224751 37546

Отслеживайте FENGYUN 1C DEB в реальном времени с AllMySat

Download on the App Store